Regional Weather Roundup
Issued by NWS Little Rock, AR

Home | Current Version | Previous Version | Text Only | Print | Product List | Glossary On
Versions: 1 2 3 4 5 6 7 8 9 10 11 12 13 14 15 16 17 18 19 20 21 22 23 24 25 26 27 28 29 30 31 32
000
ASUS44 KLZK 161905
RWRLZK

WEATHER ROUNDUP FOR ARKANSAS
NATIONAL WEATHER SERVICE LITTLE ROCK AR
100 PM CST SAT DEC 16 2017

NOTE: "FAIR" INDICATES FEW OR NO CLOUDS BELOW 12,000 FEET WITH NO
SIGNIFICANT WEATHER AND/OR OBSTRUCTIONS TO VISIBILITY.

ARZ001-003-010-029-162000-
NORTHWEST ARKANSAS

CITY           SKY/WX    TMP DP  RH WIND       PRES   REMARKS
FAYETTEVILLE   SUNNY     55  27  34 SW13G22   30.04F
FORT SMITH     SUNNY     59  27  29 SW13      30.07F
HARRISON       SUNNY     57  21  24 SW13G21   30.04F
BENTONVILLE    SUNNY     55  26  32 SW17      30.04F
ROGERS         SUNNY     56  26  31 SW14G21   30.03F
SILOAM SPGS    SUNNY     56  26  31 SW17      30.02F
HIGHFILL       SUNNY     55  26  32 SW15      30.02F
SPRINGDALE     SUNNY     55  25  30 SW16      30.05F
$$

ARZ004-005-016-162000-
NORTH CENTRAL ARKANSAS

CITY           SKY/WX    TMP DP  RH WIND       PRES   REMARKS
BATESVILLE     SUNNY     54  29  38 S8        30.12F
FLIPPIN        SUNNY     57  26  30 S8        30.06F
MTN HOME       SUNNY     55  26  32 SW9G18    30.05F
$$

ARZ040-041-162000-
WEST CENTRAL ARKANSAS

CITY           SKY/WX    TMP DP  RH WIND       PRES   REMARKS
MENA           SUNNY     57  28  33 S6        30.10F
MOUNT IDA      SUNNY     56  28  34 VRB5      30.10F
$$

ARZ009-017-025-026-028-162000-
NORTHEAST ARKANSAS

CITY           SKY/WX    TMP DP  RH WIND       PRES   REMARKS
CORNING        FAIR      54  34  47 S18G25    30.11F
JONESBORO      CLOUDY    53  33  46 SW15      30.13F
NEWPORT        SUNNY     54  30  40 SW15      30.14F
WALNUT RIDGE   SUNNY     55  30  38 S18       30.11F
BLYTHEVILLE    SUNNY     53  33  46 SW21G30   30.15F
$$

ARZ022-023-033-042-044-162000-
CENTRAL ARKANSAS

CITY           SKY/WX    TMP DP  RH WIND       PRES   REMARKS
LITTLE ROCK    CLOUDY    55  30  38 S10       30.16F
N LITTLE ROCK    N/A     53  30  40 S8        30.18F
JACKSONVILLE   CLOUDY    56  29  35 S8        30.14F
SEARCY         SUNNY     55  31  39 S13       30.15F
HOT SPRINGS    CLOUDY    56  29  35 S8        30.13F
RUSSELLVILLE   CLOUDY    57  27  31 SW8       30.09F
CLINTON        FAIR      54  28  37 SW13      30.12F
$$

ARZ036-162000-
EAST ARKANSAS

CITY           SKY/WX    TMP DP  RH WIND       PRES   REMARKS
WEST MEMPHIS   CLOUDY    53  34  48 S14       30.17F
$$

ARZ050-053-066-070-073-162000-
SOUTHWEST ARKANSAS

CITY           SKY/WX    TMP DP  RH WIND       PRES   REMARKS
ARKADELPHIA    FAIR      57  29  34 S9        30.16F
CAMDEN         CLOUDY    59  27  29 SW10      30.18F
TEXARKANA      CLOUDY    56  27  32 S9        30.13F
EL DORADO      CLOUDY    56  35  45 S9        30.19F
DE QUEEN       SUNNY     56  32  40 SW5       30.10F
$$

ARZ056-057-069-162000-
SOUTHEAST ARKANSAS

CITY           SKY/WX    TMP DP  RH WIND       PRES   REMARKS
PINE BLUFF     MOSUNNY   55  29  36 SW13      30.18F
STUTTGART      CLOUDY    55  29  36 S14       30.17F
MONTICELLO     CLOUDY    56  32  40 VRB7      30.19F

$$






USA.gov is the U.S. government's official web portal to all federal, state and local government web resources and services.